When you browse on this site, cookies collect data to enhance your experience and personalize the content and advertising you see.
Visit our Privacy Policy to learn more. By continuing to use the site, you agree to this use of cookies and data.
  • în România
  • Lista ţărilor
  • Pe 7 zile
  • Temperatura apei
  • Meteo pe hartă
  • Widget-uri
  • user-avatar
    Intrare

    Meteo pe oră la Trujillo

    Astăzi, 5 Decembrie, Joi

    Timp Temperatura Precipitaţii Vânt Presiune Umiditate
    00:00 +16°C° 0 mm 2 m/s 646 mmHg 83%
    01:00 +16°C° 0 mm 2 m/s 646 mmHg 76%
    02:00 +16°C° 0 mm 2 m/s 646 mmHg 75%
    03:00 +16°C° 0 mm 2 m/s 646 mmHg 74%
    04:00 +16°C° 0 mm 2 m/s 646 mmHg 74%
    05:00 +18°C° 0 mm 1 m/s 646 mmHg 75%
    06:00 +19°C° 0 mm 1 m/s 647 mmHg 76%
    07:00 +20°C° 0 mm 1 m/s 648 mmHg 74%
    08:00 +22°C° 0 mm 1 m/s 649 mmHg 68%
    09:00 +24°C° 0 mm 1 m/s 649 mmHg 62%
    10:00 +26°C° 0 mm 1 m/s 650 mmHg 56%
    11:00 +26°C° 0 mm 1 m/s 649 mmHg 55%
    12:00 +27°C° 0 mm 1 m/s 649 mmHg 54%
    13:00 +27°C° 0 mm 1 m/s 648 mmHg 53%
    14:00 +26°C° 0.1 mm 1 m/s 648 mmHg 60%
    15:00 +25°C° 0.1 mm 1 m/s 647 mmHg 67%
    16:00 +24°C° 0.1 mm 1 m/s 646 mmHg 74%
    17:00 +23°C° 0 mm 1 m/s 646 mmHg 78%
    18:00 +21°C° 0 mm 1 m/s 646 mmHg 83%
    19:00 +19°C° 0 mm 1 m/s 646 mmHg 88%
    20:00 +19°C° 0 mm 1 m/s 647 mmHg 85%
    21:00 +19°C° 0 mm 1 m/s 647 mmHg 82%
    22:00 +19°C° 0 mm 1 m/s 647 mmHg 79%
    23:00 +18°C° 0 mm 1 m/s 647 mmHg 78%

    Mâine, 6 Decembrie, Vineri

    Timp Temperatura Precipitaţii Vânt Presiune Umiditate
    00:00 +18°C° 0 mm 1 m/s 647 mmHg 76%
    01:00 +18°C° 0 mm 1 m/s 647 mmHg 74%
    02:00 +18°C° 0 mm 1 m/s 646 mmHg 72%
    03:00 +18°C° 0 mm 1 m/s 646 mmHg 71%
    04:00 +16°C° 0 mm 1 m/s 646 mmHg 69%
    05:00 +18°C° 0 mm 1 m/s 647 mmHg 70%
    06:00 +19°C° 0 mm 1 m/s 647 mmHg 71%
    07:00 +20°C° 0 mm 1 m/s 648 mmHg 71%
    08:00 +22°C° 0 mm 1 m/s 649 mmHg 67%
    09:00 +24°C° 0 mm 1 m/s 649 mmHg 62%
    10:00 +26°C° 0 mm 1 m/s 650 mmHg 57%
    11:00 +26°C° 0 mm 1 m/s 650 mmHg 58%
    12:00 +26°C° 0 mm 1 m/s 649 mmHg 59%
    13:00 +26°C° 0 mm 1 m/s 648 mmHg 61%
    14:00 +25°C° 0.4 mm 1 m/s 647 mmHg 70%
    15:00 +24°C° 0.4 mm 1 m/s 647 mmHg 80%
    16:00 +21°C° 0.4 mm 0 m/s 646 mmHg 90%
    17:00 +20°C° 0.3 mm 0 m/s 646 mmHg 92%
    18:00 +18°C° 0.3 mm 0 m/s 646 mmHg 93%
    19:00 +17°C° 0.3 mm 0 m/s 646 mmHg 95%
    20:00 +19°C° 0 mm 1 m/s 646 mmHg 95%
    21:00 +19°C° 0 mm 1 m/s 647 mmHg 94%
    22:00 +19°C° 0 mm 1 m/s 647 mmHg 93%
    23:00 +18°C° 0 mm 1 m/s 647 mmHg 92%

    Poimâine, 7 Decembrie, Sâmbătă

    Timp Temperatura Precipitaţii Vânt Presiune Umiditate
    00:00 +18°C° 0 mm 1 m/s 646 mmHg 91%
    01:00 +18°C° 0 mm 1 m/s 646 mmHg 90%
    02:00 +16°C° 0 mm 1 m/s 646 mmHg 89%
    03:00 +16°C° 0 mm 1 m/s 646 mmHg 87%
    04:00 +16°C° 0 mm 1 m/s 646 mmHg 86%
    05:00 +18°C° 0 mm 1 m/s 646 mmHg 84%
    06:00 +19°C° 0 mm 1 m/s 647 mmHg 82%
    07:00 +19°C° 0 mm 1 m/s 648 mmHg 80%
    08:00 +21°C° 0 mm 1 m/s 649 mmHg 74%
    09:00 +23°C° 0 mm 1 m/s 649 mmHg 69%
    10:00 +25°C° 0 mm 1 m/s 650 mmHg 64%
    11:00 +24°C° 0.3 mm 1 m/s 649 mmHg 70%
    12:00 +24°C° 0.3 mm 1 m/s 648 mmHg 76%
    13:00 +23°C° 0.3 mm 1 m/s 647 mmHg 82%
    14:00 +23°C° 0.6 mm 1 m/s 647 mmHg 86%
    15:00 +22°C° 0.6 mm 1 m/s 646 mmHg 90%
    16:00 +19°C° 0.6 mm 0 m/s 646 mmHg 94%
    17:00 +19°C° 0.2 mm 0 m/s 646 mmHg 94%
    18:00 +18°C° 0.2 mm 0 m/s 646 mmHg 95%
    19:00 +17°C° 0.2 mm 0 m/s 646 mmHg 95%
    20:00 +17°C° 0 mm 0 m/s 646 mmHg 95%
    21:00 +19°C° 0 mm 1 m/s 646 mmHg 95%
    22:00 +19°C° 0 mm 1 m/s 647 mmHg 94%
    23:00 +18°C° 0 mm 1 m/s 646 mmHg 94%

    8 Decembrie, Duminică

    Timp Temperatura Precipitaţii Vânt Presiune Umiditate
    00:00 +18°C° 0 mm 1 m/s 646 mmHg 94%
    01:00 +18°C° 0 mm 1 m/s 646 mmHg 94%
    02:00 +18°C° 0 mm 1 m/s 646 mmHg 93%
    03:00 +18°C° 0 mm 1 m/s 646 mmHg 93%
    04:00 +16°C° 0 mm 1 m/s 646 mmHg 93%
    05:00 +16°C° 0 mm 0 m/s 646 mmHg 91%
    06:00 +17°C° 0 mm 0 m/s 647 mmHg 90%
    07:00 +17°C° 0 mm 0 m/s 647 mmHg 89%
    08:00 +21°C° 0 mm 1 m/s 648 mmHg 80%
    09:00 +23°C° 0 mm 1 m/s 649 mmHg 71%
    10:00 +25°C° 0 mm 1 m/s 649 mmHg 61%
    11:00 +25°C° 0.1 mm 1 m/s 649 mmHg 63%
    12:00 +25°C° 0.1 mm 1 m/s 648 mmHg 65%
    13:00 +25°C° 0.1 mm 1 m/s 647 mmHg 67%
    14:00 +24°C° 0.2 mm 1 m/s 647 mmHg 73%
    15:00 +23°C° 0.2 mm 1 m/s 646 mmHg 78%
    16:00 +22°C° 0.2 mm 1 m/s 645 mmHg 83%
    17:00 +21°C° 0.2 mm 1 m/s 645 mmHg 86%
    18:00 +19°C° 0.2 mm 1 m/s 645 mmHg 89%
    19:00 +18°C° 0.2 mm 1 m/s 646 mmHg 91%
    20:00 +18°C° 0.3 mm 1 m/s 646 mmHg 92%
    21:00 +18°C° 0.3 mm 1 m/s 646 mmHg 92%
    22:00 +18°C° 0.3 mm 1 m/s 647 mmHg 92%
    23:00 +18°C° 0.1 mm 1 m/s 646 mmHg 92%

    9 Decembrie, Luni

    Timp Temperatura Precipitaţii Vânt Presiune Umiditate
    00:00 +18°C° 0.1 mm 1 m/s 646 mmHg 93%
    01:00 +16°C° 0.1 mm 1 m/s 645 mmHg 93%
    02:00 +16°C° 0 mm 1 m/s 645 mmHg 93%
    03:00 +16°C° 0 mm 1 m/s 645 mmHg 93%
    04:00 +15°C° 0 mm 0 m/s 645 mmHg 93%
    05:00 +15°C° 0 mm 0 m/s 646 mmHg 91%
    06:00 +16°C° 0 mm 0 m/s 646 mmHg 89%
    07:00 +17°C° 0 mm 0 m/s 647 mmHg 87%
    08:00 +21°C° 0 mm 1 m/s 648 mmHg 78%
    09:00 +23°C° 0 mm 1 m/s 649 mmHg 68%
    10:00 +25°C° 0 mm 1 m/s 649 mmHg 59%
    11:00 +25°C° 0.1 mm 1 m/s 649 mmHg 61%
    12:00 +25°C° 0.1 mm 1 m/s 648 mmHg 64%
    13:00 +24°C° 0.1 mm 1 m/s 647 mmHg 66%
    14:00 +24°C° 0.3 mm 1 m/s 647 mmHg 72%
    15:00 +23°C° 0.3 mm 1 m/s 646 mmHg 78%
    16:00 +20°C° 0.3 mm 0 m/s 645 mmHg 83%
    17:00 +19°C° 0.1 mm 0 m/s 645 mmHg 87%
    18:00 +17°C° 0.1 mm 0 m/s 645 mmHg 90%
    19:00 +16°C° 0.1 mm 0 m/s 645 mmHg 93%
    20:00 +18°C° 0 mm 1 m/s 646 mmHg 93%
    21:00 +18°C° 0 mm 1 m/s 646 mmHg 92%
    22:00 +16°C° 0 mm 1 m/s 646 mmHg 91%
    23:00 +16°C° 0 mm 1 m/s 646 mmHg 89%

    10 Decembrie, Marţi

    Timp Temperatura Precipitaţii Vânt Presiune Umiditate
    00:00 +16°C° 0 mm 1 m/s 646 mmHg 87%
    01:00 +16°C° 0 mm 1 m/s 645 mmHg 85%
    02:00 +15°C° 0 mm 1 m/s 645 mmHg 84%
    03:00 +15°C° 0 mm 1 m/s 645 mmHg 82%
    04:00 +15°C° 0 mm 1 m/s 645 mmHg 81%
    05:00 +16°C° 0 mm 1 m/s 646 mmHg 78%
    06:00 +16°C° 0 mm 1 m/s 646 mmHg 75%
    07:00 +18°C° 0 mm 1 m/s 647 mmHg 72%
    08:00 +20°C° 0 mm 1 m/s 648 mmHg 66%
    09:00 +22°C° 0 mm 1 m/s 649 mmHg 60%
    10:00 +24°C° 0 mm 1 m/s 650 mmHg 54%
    11:00 +25°C° 0 mm 1 m/s 649 mmHg 55%
    12:00 +25°C° 0 mm 1 m/s 648 mmHg 56%
    13:00 +25°C° 0 mm 1 m/s 648 mmHg 57%
    14:00 +24°C° 0.1 mm 1 m/s 647 mmHg 63%
    15:00 +24°C° 0.1 mm 1 m/s 646 mmHg 69%
    16:00 +23°C° 0.1 mm 1 m/s 646 mmHg 75%
    17:00 +21°C° 0 mm 1 m/s 646 mmHg 81%
    18:00 +20°C° 0 mm 1 m/s 646 mmHg 87%
    19:00 +18°C° 0 mm 1 m/s 646 mmHg 93%
    20:00 +18°C° 0 mm 1 m/s 646 mmHg 92%
    21:00 +18°C° 0 mm 1 m/s 646 mmHg 91%
    22:00 +16°C° 0 mm 1 m/s 647 mmHg 89%
    23:00 +16°C° 0 mm 1 m/s 646 mmHg 89%
    Arată mai mult